This is the latest recevied weather packets stored in our database for station/object KC1HBM. If no packets are shown the sender has not sent any weather packets the latest 10 day(s).
| Time | Temp. | Humidity | Pressure | Rain* | Wind** | Luminosity | Snow |
|---|---|---|---|---|---|---|---|
| 1777720115 | 8.33° C | 82% | 1010.9 hPa | 0 mm | - | 6 W/m² | - |
| 1777719812 | 8.33° C | 82% | 1010.9 hPa | 0 mm | - | 17 W/m² | - |
| 1777719509 | 8.33° C | 82% | 1010.8 hPa | 0 mm | - | 21 W/m² | - |
| 1777719206 | 8.33° C | 81% | 1010.7 hPa | 0 mm | - | 11 W/m² | - |
| 1777718904 | 7.78° C | 81% | 1010.7 hPa | 0 mm | - | 5 W/m² | - |
| 1777718601 | 7.78° C | 82% | 1010.7 hPa | 0 mm | - | 4 W/m² | - |
| 1777718299 | 7.78° C | 81% | 1010.6 hPa | 0 mm | - | 3 W/m² | - |
| 1777717996 | 7.78° C | 80% | 1010.7 hPa | 0 mm | - | 3 W/m² | - |
| 1777717693 | 7.78° C | 80% | 1010.5 hPa | 0 mm | - | 3 W/m² | - |
| 1777717389 | 7.78° C | 81% | 1010.6 hPa | 0 mm | - | 3 W/m² | - |
| 1777717087 | 7.78° C | 81% | 1010.4 hPa | 0 mm | - | 1 W/m² | - |
| 1777716785 | 7.78° C | 83% | 1010.3 hPa | 0 mm | - | 0 W/m² | - |
| 1777716483 | 7.78° C | 83% | 1010.2 hPa | 0 mm | - | 2 W/m² | - |
| 1777716182 | 7.22° C | 83% | 1010.1 hPa | 0 mm | - | 1 W/m² | - |
| 1777715879 | 7.22° C | 83% | 1010 hPa | 0 mm | - | 2 W/m² | - |
| 1777715576 | 7.22° C | 82% | 1009.8 hPa | 0 mm | - | 0 W/m² | - |
| 1777715274 | 6.67° C | 82% | 1010 hPa | 0 mm | - | 3 W/m² | - |
| 1777714972 | 6.67° C | 83% | 1010 hPa | 0 mm | - | 1 W/m² | - |
| 1777714669 | 6.67° C | 82% | 1009.8 hPa | 0 mm | - | 0 W/m² | - |
| 1777714367 | 6.11° C | 81% | 1010.1 hPa | 0 mm | - | 0 W/m² | - |
| 1777714064 | 6.11° C | 80% | 1010 hPa | 0 mm | - | 0 W/m² | - |
| 1777713762 | 6.11° C | 82% | 1009.8 hPa | 0 mm | - | 0 W/m² | - |
| 1777713459 | 6.11° C | 79% | 1009.8 hPa | 0 mm | - | 0 W/m² | - |
| 1777713156 | 5.56° C | 79% | 1009.7 hPa | 0 mm | - | 0 W/m² | - |
| 1777712853 | 5.56° C | 80% | 1010 hPa | 0 mm | - | 0 W/m² | - |
* Rain latest hour (hover to see other rain measurements)
** Current wind speed in m/s (hover to see current wind gust speed)